Wetterdaten: Montag, 20.04.2015
Datum Zeit Temp. A. Feuchte A. Luftdruck Regen Wind Richtung Richtung Sonnenschein ET UV Solar Taupunkt Windchill Windben Empfang
20.04.2015 00:00 4,1 C 80 % 1021,8 hPa 0,0 l/m 0,0 km/h (0 Bft) S 183 0 min 0,000 mm 0,0 UV-I 0 W/m 1,0 C 4,1 C 0,0 km/h (0 Bft) 0,00 %
20.04.2015 00:15 3,7 C 82 % 1022,0 hPa 0,0 l/m 0,0 km/h (0 Bft) S 180 0 min 0,000 mm 0,0 UV-I 0 W/m 0,9 C 3,7 C 0,0 km/h (0 Bft) 0,00 %
20.04.2015 00:30 3,4 C 84 % 1022,1 hPa 0,0 l/m 0,0 km/h (0 Bft) S 183 0 min 0,000 mm 0,0 UV-I 0 W/m 1,0 C 3,4 C 0,0 km/h (0 Bft) 0,00 %
20.04.2015 00:45 3,3 C 84 % 1022,3 hPa 0,0 l/m 0,0 km/h (0 Bft) S-SW 192 0 min 0,000 mm 0,0 UV-I 0 W/m 0,9 C 3,3 C 0,0 km/h (0 Bft) 0,00 %
20.04.2015 01:00 3,4 C 85 % 1022,4 hPa 0,0 l/m 0,0 km/h (0 Bft) S 180 0 min 0,000 mm 0,0 UV-I 0 W/m 1,1 C 3,4 C 0,0 km/h (0 Bft) 0,00 %
20.04.2015 01:15 3,2 C 85 % 1022,6 hPa 0,0 l/m 0,0 km/h (0 Bft) S 186 0 min 0,000 mm 0,0 UV-I 0 W/m 0,9 C 3,2 C 0,0 km/h (0 Bft) 0,00 %
20.04.2015 01:30 3,0 C 86 % 1022,3 hPa 0,0 l/m 0,0 km/h (0 Bft) S 188 0 min 0,000 mm 0,0 UV-I 0 W/m 0,9 C 3,0 C 0,0 km/h (0 Bft) 0,00 %
20.04.2015 01:45 3,1 C 86 % 1022,6 hPa 0,0 l/m 0,0 km/h (0 Bft) S 184 0 min 0,000 mm 0,0 UV-I 0 W/m 1,0 C 3,1 C 0,0 km/h (0 Bft) 0,00 %
20.04.2015 02:00 2,9 C 86 % 1022,6 hPa 0,0 l/m 0,0 km/h (0 Bft) S-SW 193 0 min 0,000 mm 0,0 UV-I 0 W/m 0,8 C 2,9 C 0,0 km/h (0 Bft) 0,00 %
20.04.2015 02:15 2,7 C 86 % 1022,7 hPa 0,0 l/m 0,0 km/h (0 Bft) S 188 0 min 0,000 mm 0,0 UV-I 0 W/m 0,6 C 2,7 C 0,0 km/h (0 Bft) 0,00 %
20.04.2015 02:30 2,5 C 87 % 1022,4 hPa 0,0 l/m 0,0 km/h (0 Bft) S-SW 193 0 min 0,000 mm 0,0 UV-I 0 W/m 0,6 C 2,5 C 0,0 km/h (0 Bft) 0,00 %
20.04.2015 02:45 2,5 C 87 % 1022,7 hPa 0,0 l/m 0,0 km/h (0 Bft) S 188 0 min 0,000 mm 0,0 UV-I 0 W/m 0,6 C 2,5 C 0,0 km/h (0 Bft) 0,00 %
20.04.2015 03:00 2,4 C 84 % 1022,7 hPa 0,0 l/m 0,0 km/h (0 Bft) S-SW 193 0 min 0,000 mm 0,0 UV-I 0 W/m -0,0 C 2,4 C 0,0 km/h (0 Bft) 0,00 %
20.04.2015 03:15 1,9 C 84 % 1023,0 hPa 0,0 l/m 0,0 km/h (0 Bft) S 182 0 min 0,000 mm 0,0 UV-I 0 W/m -0,5 C 1,9 C 0,0 km/h (0 Bft) 0,00 %
20.04.2015 03:30 1,8 C 86 % 1023,0 hPa 0,0 l/m 0,0 km/h (0 Bft) S 180 0 min 0,000 mm 0,0 UV-I 0 W/m -0,3 C 1,8 C 0,0 km/h (0 Bft) 0,00 %
20.04.2015 03:45 1,8 C 87 % 1022,9 hPa 0,0 l/m 0,0 km/h (0 Bft) SW 225 0 min 0,000 mm 0,0 UV-I 0 W/m -0,1 C 1,8 C 0,0 km/h (0 Bft) 0,00 %
20.04.2015 04:00 1,8 C 87 % 1022,8 hPa 0,0 l/m 0,0 km/h (0 Bft) S 180 0 min 0,000 mm 0,0 UV-I 0 W/m -0,1 C 1,8 C 0,0 km/h (0 Bft) 0,00 %
20.04.2015 04:15 1,7 C 87 % 1022,9 hPa 0,0 l/m 0,0 km/h (0 Bft) S 186 0 min 0,000 mm 0,0 UV-I 0 W/m -0,2 C 1,7 C 0,0 km/h (0 Bft) 0,00 %
20.04.2015 04:30 1,5 C 87 % 1023,0 hPa 0,0 l/m 0,0 km/h (0 Bft) S 180 0 min 0,000 mm 0,0 UV-I 0 W/m -0,4 C 1,5 C 0,0 km/h (0 Bft) 0,00 %
20.04.2015 04:45 1,2 C 88 % 1023,1 hPa 0,0 l/m 0,0 km/h (0 Bft) S 182 0 min 0,000 mm 0,0 UV-I 0 W/m -0,6 C 1,2 C 0,0 km/h (0 Bft) 0,00 %
20.04.2015 05:00 1,0 C 89 % 1023,2 hPa 0,0 l/m 0,0 km/h (0 Bft) S 185 0 min 0,000 mm 0,0 UV-I 0 W/m -0,6 C 1,0 C 0,0 km/h (0 Bft) 0,00 %
20.04.2015 05:15 0,8 C 90 % 1023,2 hPa 0,0 l/m 0,0 km/h (0 Bft) S-SW 193 0 min 0,000 mm 0,0 UV-I 0 W/m -0,6 C 0,8 C 0,0 km/h (0 Bft) 0,00 %
20.04.2015 05:30 1,1 C 90 % 1023,3 hPa 0,0 l/m 0,0 km/h (0 Bft) S 191 0 min 0,000 mm 0,0 UV-I 0 W/m -0,4 C 1,1 C 0,0 km/h (0 Bft) 0,00 %
20.04.2015 05:45 1,3 C 90 % 1023,5 hPa 0,0 l/m 0,0 km/h (0 Bft) S-SW 194 0 min 0,000 mm 0,0 UV-I 0 W/m -0,2 C 1,3 C 0,0 km/h (0 Bft) 0,00 %
20.04.2015 06:00 1,2 C 90 % 1023,4 hPa 0,0 l/m 0,0 km/h (0 Bft) S 185 0 min 0,000 mm 0,0 UV-I 0 W/m -0,3 C 1,2 C 0,0 km/h (0 Bft) 0,00 %
20.04.2015 06:15 1,3 C 90 % 1023,5 hPa 0,0 l/m 0,0 km/h (0 Bft) S 190 0 min 0,000 mm 0,0 UV-I 2 W/m -0,2 C 1,3 C 0,0 km/h (0 Bft) 0,00 %
20.04.2015 06:30 1,5 C 89 % 1023,6 hPa 0,0 l/m 0,0 km/h (0 Bft) S 189 15 min 0,000 mm 0,0 UV-I 33 W/m -0,1 C 1,5 C 0,0 km/h (0 Bft) 0,00 %
20.04.2015 06:45 2,5 C 90 % 1022,5 hPa 0,0 l/m 0,0 km/h (0 Bft) S 183 15 min 0,000 mm 0,0 UV-I 85 W/m 1,0 C 2,5 C 0,0 km/h (0 Bft) 0,00 %
20.04.2015 07:00 3,9 C 82 % 1022,3 hPa 0,0 l/m 0,0 km/h (0 Bft) S 182 15 min 0,000 mm 1,0 UV-I 124 W/m 1,1 C 3,9 C 0,0 km/h (0 Bft) 0,00 %
20.04.2015 07:15 4,8 C 77 % 1022,0 hPa 0,0 l/m 0,0 km/h (0 Bft) S 177 15 min 0,000 mm 1,0 UV-I 156 W/m 1,1 C 4,8 C 0,0 km/h (0 Bft) 0,00 %
20.04.2015 07:30 5,6 C 74 % 1022,3 hPa 0,0 l/m 0,0 km/h (0 Bft) S 181 15 min 0,000 mm 1,0 UV-I 172 W/m 1,3 C 5,6 C 0,0 km/h (0 Bft) 0,00 %
20.04.2015 07:45 6,3 C 71 % 1021,9 hPa 0,0 l/m 0,0 km/h (0 Bft) SO 140 15 min 0,000 mm 1,0 UV-I 183 W/m 1,4 C 6,3 C 0,0 km/h (0 Bft) 0,00 %
20.04.2015 08:00 7,0 C 68 % 1021,6 hPa 0,0 l/m 0,0 km/h (0 Bft) SW 225 15 min 0,000 mm 1,0 UV-I 196 W/m 1,5 C 7,0 C 0,0 km/h (0 Bft) 0,00 %
20.04.2015 08:15 7,4 C 68 % 1021,8 hPa 0,0 l/m 1,4 km/h (1 Bft) W-SW 252 15 min 0,000 mm 1,0 UV-I 213 W/m 1,9 C 7,4 C 4,0 km/h (1 Bft) 0,00 %
20.04.2015 08:30 8,5 C 68 % 1021,4 hPa 0,0 l/m 0,0 km/h (0 Bft) S 187 15 min 0,000 mm 2,0 UV-I 225 W/m 2,9 C 8,5 C 0,0 km/h (0 Bft) 0,00 %
20.04.2015 08:45 8,5 C 66 % 1021,7 hPa 0,0 l/m 0,4 km/h (0 Bft) S-SW 201 15 min 0,000 mm 2,0 UV-I 250 W/m 2,5 C 8,5 C 4,0 km/h (1 Bft) 0,00 %
20.04.2015 09:00 9,5 C 62 % 1021,5 hPa 0,0 l/m 0,0 km/h (0 Bft) S-SW 192 15 min 0,000 mm 2,0 UV-I 265 W/m 2,6 C 9,5 C 0,0 km/h (0 Bft) 0,00 %
20.04.2015 09:15 9,4 C 64 % 1021,5 hPa 0,0 l/m 0,0 km/h (0 Bft) S 177 0 min 0,000 mm 2,0 UV-I 266 W/m 2,9 C 9,4 C 0,0 km/h (0 Bft) 0,00 %
20.04.2015 09:30 9,8 C 62 % 1021,5 hPa 0,0 l/m 3,2 km/h (1 Bft) W-SW 256 15 min 0,000 mm 3,0 UV-I 313 W/m 2,9 C 9,8 C 4,0 km/h (1 Bft) 0,00 %
20.04.2015 09:45 10,5 C 55 % 1021,3 hPa 0,0 l/m 4,0 km/h (1 Bft) SW 224 15 min 0,000 mm 3,0 UV-I 357 W/m 1,8 C 10,5 C 4,0 km/h (1 Bft) 0,00 %
20.04.2015 10:00 10,8 C 57 % 1021,3 hPa 0,0 l/m 0,7 km/h (0 Bft) SW 228 0 min 0,000 mm 3,0 UV-I 307 W/m 2,6 C 10,8 C 4,0 km/h (1 Bft) 0,00 %
20.04.2015 10:15 11,9 C 53 % 1021,2 hPa 0,0 l/m 0,0 km/h (0 Bft) W-SW 256 15 min 0,000 mm 3,0 UV-I 408 W/m 2,6 C 11,9 C 0,0 km/h (0 Bft) 0,00 %
20.04.2015 10:30 12,1 C 53 % 1021,1 hPa 0,0 l/m 0,0 km/h (0 Bft) W-SW 256 15 min 0,000 mm 4,0 UV-I 434 W/m 2,8 C 12,1 C 0,0 km/h (0 Bft) 0,00 %
20.04.2015 10:45 13,0 C 46 % 1021,0 hPa 0,0 l/m 0,0 km/h (0 Bft) S 185 15 min 0,000 mm 3,0 UV-I 404 W/m 1,7 C 13,0 C 0,0 km/h (0 Bft) 0,00 %
20.04.2015 11:00 12,9 C 47 % 1020,8 hPa 0,0 l/m 7,2 km/h (2 Bft) SW 222 15 min 0,000 mm 4,0 UV-I 488 W/m 1,9 C 12,4 C 11,9 km/h (2 Bft) 0,00 %
20.04.2015 11:15 13,3 C 46 % 1020,9 hPa 0,0 l/m 0,7 km/h (0 Bft) W-NW 303 15 min 0,000 mm 4,0 UV-I 520 W/m 1,9 C 13,3 C 4,0 km/h (1 Bft) 0,00 %
20.04.2015 11:30 13,7 C 43 % 1020,5 hPa 0,0 l/m 0,7 km/h (0 Bft) W 264 15 min 0,000 mm 5,0 UV-I 553 W/m 1,4 C 13,7 C 4,0 km/h (1 Bft) 0,00 %
20.04.2015 11:45 13,4 C 42 % 1020,4 hPa 0,0 l/m 4,7 km/h (1 Bft) W-NW 300 15 min 0,000 mm 5,0 UV-I 576 W/m 0,8 C 13,4 C 7,9 km/h (2 Bft) 0,00 %
20.04.2015 12:00 14,1 C 41 % 1020,3 hPa 0,0 l/m 6,5 km/h (2 Bft) W-SW 256 15 min 0,000 mm 5,0 UV-I 636 W/m 1,1 C 14,1 C 7,9 km/h (2 Bft) 0,00 %
20.04.2015 12:15 14,1 C 45 % 1020,3 hPa 0,0 l/m 3,2 km/h (1 Bft) W-SW 255 15 min 0,000 mm 5,0 UV-I 672 W/m 2,4 C 14,1 C 4,0 km/h (1 Bft) 0,00 %
20.04.2015 12:30 14,6 C 41 % 1020,3 hPa 0,0 l/m 2,9 km/h (1 Bft) W-SW 256 15 min 0,000 mm 5,0 UV-I 650 W/m 1,5 C 14,6 C 4,0 km/h (1 Bft) 0,00 %
20.04.2015 12:45 14,4 C 42 % 1020,1 hPa 0,0 l/m 4,7 km/h (1 Bft) W 271 15 min 0,000 mm 5,0 UV-I 688 W/m 1,7 C 14,4 C 7,9 km/h (2 Bft) 0,00 %
20.04.2015 13:00 14,5 C 40 % 1020,1 hPa 0,0 l/m 2,9 km/h (1 Bft) W-SW 256 15 min 0,000 mm 5,0 UV-I 692 W/m 1,1 C 14,5 C 4,0 km/h (1 Bft) 0,00 %
20.04.2015 13:15 14,7 C 39 % 1019,9 hPa 0,0 l/m 2,2 km/h (1 Bft) W-SW 255 15 min 0,000 mm 5,0 UV-I 691 W/m 0,9 C 14,7 C 7,9 km/h (2 Bft) 0,00 %
20.04.2015 13:30 15,4 C 41 % 1019,8 hPa 0,0 l/m 0,7 km/h (0 Bft) SW 227 15 min 0,000 mm 5,0 UV-I 716 W/m 2,2 C 15,4 C 4,0 km/h (1 Bft) 0,00 %
20.04.2015 13:45 15,2 C 39 % 1019,9 hPa 0,0 l/m 3,2 km/h (1 Bft) SW 231 15 min 0,000 mm 5,0 UV-I 721 W/m 1,3 C 15,2 C 4,0 km/h (1 Bft) 0,00 %
20.04.2015 14:00 15,1 C 41 % 1019,8 hPa 0,0 l/m 2,9 km/h (1 Bft) W-SW 239 15 min 0,000 mm 5,0 UV-I 715 W/m 2,0 C 15,1 C 4,0 km/h (1 Bft) 0,00 %
20.04.2015 14:15 15,5 C 41 % 1019,8 hPa 0,0 l/m 2,2 km/h (1 Bft) W-SW 252 15 min 0,000 mm 5,0 UV-I 724 W/m 2,3 C 15,5 C 4,0 km/h (1 Bft) 0,00 %
20.04.2015 14:30 15,6 C 40 % 1019,5 hPa 0,0 l/m 19,4 km/h (3 Bft) W-NW 289 15 min 0,000 mm 4,0 UV-I 721 W/m 2,1 C 10,7 C 24,1 km/h (4 Bft) 0,00 %
20.04.2015 14:45 15,8 C 40 % 1019,3 hPa 0,0 l/m 6,5 km/h (2 Bft) W-SW 256 15 min 0,000 mm 4,0 UV-I 758 W/m 2,2 C 15,8 C 7,9 km/h (2 Bft) 0,00 %
20.04.2015 15:00 16,4 C 35 % 1019,1 hPa 0,0 l/m 5,4 km/h (1 Bft) W-SW 254 15 min 0,000 mm 3,0 UV-I 735 W/m 0,9 C 16,4 C 7,9 km/h (2 Bft) 0,00 %
20.04.2015 15:15 16,3 C 38 % 1018,8 hPa 0,0 l/m 4,0 km/h (1 Bft) W-SW 250 15 min 0,000 mm 2,0 UV-I 722 W/m 2,0 C 16,3 C 7,9 km/h (2 Bft) 0,00 %
20.04.2015 15:30 16,3 C 38 % 1018,9 hPa 0,0 l/m 7,9 km/h (2 Bft) NO 56 15 min 0,000 mm 2,0 UV-I 725 W/m 2,0 C 15,5 C 11,9 km/h (2 Bft) 0,00 %
20.04.2015 15:45 16,4 C 36 % 1018,8 hPa 0,0 l/m 0,0 km/h (0 Bft) SW 221 15 min 0,000 mm 2,0 UV-I 697 W/m 1,3 C 16,4 C 0,0 km/h (0 Bft) 0,00 %
20.04.2015 16:00 16,4 C 35 % 1018,7 hPa 0,0 l/m 1,4 km/h (1 Bft) W-SW 254 15 min 0,000 mm 2,0 UV-I 675 W/m 0,9 C 16,4 C 4,0 km/h (1 Bft) 0,00 %
20.04.2015 16:15 16,2 C 39 % 1018,5 hPa 0,0 l/m 19,4 km/h (3 Bft) W-SW 256 15 min 0,000 mm 2,0 UV-I 678 W/m 2,2 C 11,4 C 24,1 km/h (4 Bft) 0,00 %
20.04.2015 16:30 16,1 C 39 % 1018,4 hPa 0,0 l/m 4,0 km/h (1 Bft) W-SW 256 15 min 0,000 mm 2,0 UV-I 659 W/m 2,1 C 16,1 C 7,9 km/h (2 Bft) 0,00 %
20.04.2015 16:45 16,3 C 40 % 1018,6 hPa 0,0 l/m 8,3 km/h (2 Bft) SW 232 15 min 0,000 mm 2,0 UV-I 657 W/m 2,7 C 15,3 C 11,9 km/h (2 Bft) 0,00 %
20.04.2015 17:00 15,8 C 39 % 1018,5 hPa 0,0 l/m 9,0 km/h (2 Bft) W-SW 256 15 min 0,000 mm 2,0 UV-I 660 W/m 1,9 C 14,5 C 11,9 km/h (2 Bft) 0,00 %
20.04.2015 17:15 16,7 C 36 % 1018,1 hPa 0,0 l/m 11,9 km/h (2 Bft) W-SW 256 15 min 0,000 mm 2,0 UV-I 667 W/m 1,6 C 14,3 C 15,8 km/h (3 Bft) 0,00 %
20.04.2015 17:30 16,6 C 36 % 1018,4 hPa 0,0 l/m 10,4 km/h (2 Bft) W-SW 256 15 min 0,000 mm 1,0 UV-I 593 W/m 1,5 C 14,7 C 11,9 km/h (2 Bft) 0,00 %
20.04.2015 17:45 16,1 C 37 % 1018,5 hPa 0,0 l/m 4,7 km/h (1 Bft) SW 231 15 min 0,000 mm 1,0 UV-I 551 W/m 1,4 C 16,1 C 7,9 km/h (2 Bft) 0,00 %
20.04.2015 18:00 16,0 C 38 % 1018,6 hPa 0,0 l/m 4,3 km/h (1 Bft) W-SW 254 15 min 0,000 mm 1,0 UV-I 507 W/m 1,7 C 16,0 C 7,9 km/h (2 Bft) 0,00 %
20.04.2015 18:15 15,9 C 39 % 1018,8 hPa 0,0 l/m 14,0 km/h (3 Bft) W 279 15 min 0,000 mm 1,0 UV-I 466 W/m 2,0 C 12,6 C 15,8 km/h (3 Bft) 0,00 %
20.04.2015 18:30 15,5 C 39 % 1018,7 hPa 0,0 l/m 5,8 km/h (2 Bft) W-SW 256 15 min 0,000 mm 1,0 UV-I 395 W/m 1,6 C 15,5 C 7,9 km/h (2 Bft) 0,00 %
20.04.2015 18:45 15,3 C 40 % 1019,6 hPa 0,0 l/m 9,7 km/h (2 Bft) W-SW 257 15 min 0,000 mm 1,0 UV-I 349 W/m 1,8 C 13,6 C 11,9 km/h (2 Bft) 0,00 %
20.04.2015 19:00 14,8 C 41 % 1019,8 hPa 0,0 l/m 3,2 km/h (1 Bft) W-SW 253 15 min 0,000 mm 1,0 UV-I 276 W/m 1,7 C 14,8 C 4,0 km/h (1 Bft) 0,00 %
20.04.2015 19:15 14,5 C 44 % 1020,0 hPa 0,0 l/m 4,7 km/h (1 Bft) S-SW 199 15 min 0,000 mm 0,0 UV-I 131 W/m 2,4 C 14,5 C 7,9 km/h (2 Bft) 0,00 %
20.04.2015 19:30 14,0 C 45 % 1020,2 hPa 0,0 l/m 2,2 km/h (1 Bft) W-SW 239 15 min 0,000 mm 0,0 UV-I 72 W/m 2,3 C 14,0 C 4,0 km/h (1 Bft) 0,00 %
20.04.2015 19:45 13,4 C 48 % 1020,5 hPa 0,0 l/m 0,0 km/h (0 Bft) S-SW 206 15 min 0,000 mm 0,0 UV-I 19 W/m 2,6 C 13,4 C 0,0 km/h (0 Bft) 0,00 %
20.04.2015 20:00 12,7 C 50 % 1020,9 hPa 0,0 l/m 2,2 km/h (1 Bft) W-SW 255 0 min 0,000 mm 0,0 UV-I 5 W/m 2,6 C 12,7 C 4,0 km/h (1 Bft) 0,00 %
20.04.2015 20:15 12,4 C 49 % 1021,3 hPa 0,0 l/m 0,7 km/h (0 Bft) SW 234 0 min 0,000 mm 0,0 UV-I 0 W/m 2,0 C 12,4 C 4,0 km/h (1 Bft) 0,00 %
20.04.2015 20:30 12,0 C 49 % 1021,7 hPa 0,0 l/m 0,0 km/h (0 Bft) S-SW 203 0 min 0,000 mm 0,0 UV-I 0 W/m 1,6 C 12,0 C 0,0 km/h (0 Bft) 0,00 %
20.04.2015 20:45 11,7 C 51 % 1021,8 hPa 0,0 l/m 0,0 km/h (0 Bft) S-SW 195 0 min 0,000 mm 0,0 UV-I 0 W/m 1,9 C 11,7 C 0,0 km/h (0 Bft) 0,00 %
20.04.2015 21:00 11,0 C 54 % 1022,5 hPa 0,0 l/m 0,0 km/h (0 Bft) S-SW 195 0 min 0,000 mm 0,0 UV-I 0 W/m 2,1 C 11,0 C 0,0 km/h (0 Bft) 0,00 %
20.04.2015 21:15 10,1 C 60 % 1022,6 hPa 0,0 l/m 0,0 km/h (0 Bft) S 188 0 min 0,000 mm 0,0 UV-I 0 W/m 2,7 C 10,1 C 0,0 km/h (0 Bft) 0,00 %
20.04.2015 21:30 9,7 C 61 % 1022,8 hPa 0,0 l/m 0,0 km/h (0 Bft) S-SW 200 0 min 0,000 mm 0,0 UV-I 0 W/m 2,5 C 9,7 C 0,0 km/h (0 Bft) 0,00 %
20.04.2015 21:45 9,5 C 61 % 1022,9 hPa 0,0 l/m 0,0 km/h (0 Bft) S 190 0 min 0,000 mm 0,0 UV-I 0 W/m 2,4 C 9,5 C 0,0 km/h (0 Bft) 0,00 %
20.04.2015 22:00 9,3 C 63 % 1023,0 hPa 0,0 l/m 0,0 km/h (0 Bft) S-SO 150 0 min 0,000 mm 0,0 UV-I 0 W/m 2,6 C 9,3 C 0,0 km/h (0 Bft) 0,00 %
20.04.2015 22:15 8,8 C 65 % 1023,4 hPa 0,0 l/m 0,0 km/h (0 Bft) S 186 0 min 0,000 mm 0,0 UV-I 0 W/m 2,6 C 8,8 C 0,0 km/h (0 Bft) 0,00 %
20.04.2015 22:30 8,8 C 65 % 1023,5 hPa 0,0 l/m 0,0 km/h (0 Bft) S 175 0 min 0,000 mm 0,0 UV-I 0 W/m 2,6 C 8,8 C 0,0 km/h (0 Bft) 0,00 %
20.04.2015 22:45 8,3 C 67 % 1023,7 hPa 0,0 l/m 0,0 km/h (0 Bft) S 175 0 min 0,000 mm 0,0 UV-I 0 W/m 2,5 C 8,3 C 0,0 km/h (0 Bft) 0,00 %
20.04.2015 23:00 8,3 C 66 % 1023,8 hPa 0,0 l/m 0,0 km/h (0 Bft) S 177 0 min 0,000 mm 0,0 UV-I 0 W/m 2,3 C 8,3 C 0,0 km/h (0 Bft) 0,00 %
20.04.2015 23:15 8,2 C 67 % 1024,1 hPa 0,0 l/m 0,0 km/h (0 Bft) S-SW 192 0 min 0,000 mm 0,0 UV-I 0 W/m 2,4 C 8,2 C 0,0 km/h (0 Bft) 0,00 %
20.04.2015 23:30 8,0 C 67 % 1024,0 hPa 0,0 l/m 0,0 km/h (0 Bft) S 184 0 min 0,000 mm 0,0 UV-I 0 W/m 2,3 C 8,0 C 0,0 km/h (0 Bft) 0,00 %
20.04.2015 23:45 7,7 C 69 % 1024,2 hPa 0,0 l/m 0,0 km/h (0 Bft) SO 129 0 min 0,000 mm 0,0 UV-I 0 W/m 2,4 C 7,7 C 0,0 km/h (0 Bft) 0,00 %
_ Min-Zeit 05:15 15:00 17:15 - 00:00 - - - - - - 05:15 05:15 00:00 00:00
Minimum _ 0,8 C 35 % 1018,1 hPa - 0,0 km/h (0 Bft) - - - - - - -0,6 C 0,8 C 0,0 km/h (0 Bft) 0,00 %
_ Max-Zeit 17:15 05:15 23:45 00:00 14:30 - - 06:30 00:00 11:30 14:45 09:15 15:00 14:30 00:00
Maximum _ 16,7 C 90 % 1024,2 hPa 0,0 l/m 19,4 km/h
W-NW (3 Bft)
- - 15 min 0,000 mm 5,0 UV-I 758 W/m 2,9 C 16,4 C 24,1 km/h
W-NW (4 Bft)
0,00 %
Durchschnitt _ 9,5 C 61 % 1021,4 hPa #0,0 l/m 2,2 km/h (1 Bft) W-SW - #13:00 h #0,000 mm 2,8 UV-I 449 W/m 1,5 C 9,2 C 3,4 km/h (1 Bft) 0,00 %